Weather Service Report


218 
ASUS44 KOUN 281900
RWROK 

WEATHER ROUNDUP FOR OKLAHOMA
NATIONAL WEATHER SERVICE NORMAN OK
200 PM CDT THU MAY 28 2015

NOTE: "FAIR" INDICATES FEW OR NO CLOUDS BELOW 12,000 FEET WITH NO
      SIGNIFICANT WEATHER AND/OR OBSTRUCTIONS TO VISIBILITY.

OKZ001>007-009>012-014-015-017-282000-
NORTHWEST OKLAHOMA AND THE PANHANDLE
  
CITY           SKY/WX    TMP DP  RH WIND       PRES   REMARKS
GAGE           CLOUDY    79  61  53 S17       29.98F                  
GUYMON         PTSUNNY   79  62  56 S23G31    29.97F                  
$$

OKZ016-021>023-033>039-044-045-282000-
SOUTHWEST OKLAHOMA
  
CITY           SKY/WX    TMP DP  RH WIND       PRES   REMARKS
LAWTON/REGL    MOSUNNY   82  69  64 S7        30.01F                  
LAWTON/FT SILL PTSUNNY   81  71  71 SW6       30.01F                  
FREDERICK      PTSUNNY   81  69  67 S10       29.99F                  
CLINTON        PTSUNNY   83  60  45 S13       30.03F                  
HOBART         PTSUNNY   81  66  60 S10G20    30.03F                  
$$

OKZ018>020-024>031-282000-
CENTRAL OKLAHOMA
  
CITY           SKY/WX    TMP DP  RH WIND       PRES   REMARKS
OKLAHOMA CITY  PTSUNNY   79  67  66 S10       30.04F                  
OKC/WILEY POST SUNNY     79  67  66 S10       30.04F                  
OKC/TINKER AFB CLOUDY    77  68  74 S8        30.04F                  
STILLWATER     PTSUNNY   75  64  68 S13       30.05F                  
GUTHRIE        MOSUNNY   77  67  71 S8        30.05F                  
$$

OKZ008-013-054>072-282000-
NORTHEAST OKLAHOMA
  
CITY           SKY/WX    TMP DP  RH WIND       PRES   REMARKS
TULSA          CLOUDY    72  65  78 S9        30.06F                  
TULSA/JONES    CLOUDY    74  65  73 S6        30.06F                  
PONCA CITY     CLOUDY    75  65  70 SE13      30.04F                  
BARTLESVILLE   CLOUDY    70  67  90 CALM      30.07F                  
MUSKOGEE       CLOUDY    70  67  90 SW3       30.08F                  
$$

OKZ032-040>043-046>053-073>077-282000-
SOUTH CENTRAL/SOUTHEAST OKLAHOMA
  
CITY           SKY/WX    TMP DP  RH WIND       PRES   REMARKS
MCALESTER      LGT RAIN  69  66  90 CALM      30.07F                  
$$


Return to Home page


Western Regional Climate Center, wrcc@dri.edu